Location: Hobi?a Gr?di?te
(45.4833°N, 22.7833°E)
Time: 04:53:47
(UTC+00:00)

CZ-4 R/B - Pass Details

Date: 28 January 2023
Orbit: 526 x 586 km, 97.7° (Epoch: 29 March)

Event Time Altitude Azimuth Distance (km) Brightness Sun altitude
Rises 16:36:53 0° 134° (SE) 2,812 4.6 -12.0°
Reaches altitude 10° 16:39:21 10° 120° (ESE) 1,913 3.7 -12.4°
Maximum altitude 16:42:42 24° 67° (ENE) 1,229 2.5 -13.0°
Drops below altitude 10° 16:46:02 10° 13° (NNE) 1,907 3.8 -13.5°
Sets 16:48:28 0° 359° (N) 2,802 4.8 -14.0°
